Location: Recife
(8.0585°S, 34.8848°W)
Time: 11:30:50
(UTC-03:00)

Vanguard 2 Rocket - Pass Details

Date: 14 April 2026
Orbit: 553 x 3286 km, 32.9° (Epoch: 8 May)

Event Time Altitude Azimuth Distance (km) Brightness Sun altitude
Rises 10:34:23 0° 234° (SW) 5,988 10.9 69.1°
Reaches altitude 10° 10:38:46 10° 224° (SW) 5,338 10.7 69.6°
Maximum altitude 10:53:28 32° 166° (SSE) 4,508 10.7 71.2°
Drops below altitude 10° 11:10:19 10° 109° (ESE) 6,127 11.2 72.2°
Sets 11:15:48 0° 99° (E) 6,952 11.4 72.4°
